FIN15 EFHK-KJFK

Flight info

Callsign FIN15
Flight time N/A
Altitude 38000
Route NEPEK Y357 EVLIT DCT TOGMI DCT TIGBA DCT ABADA DCT 65N000E/M084F380 65N010W 6430N02000W/M084F400 6230N03000W 59N040W 55N050W DCT NEEKO/N0497F400 DCT PIKNA DCT HITOR DCT TOPPS DCT ENE PARCH4
Aircraft A359/H-SDE2E3GHIJ3J4J5LM1ORWXY/LB1D1

Departure

Time 2026-05-04 14:30
Airport Helsinki Vantaa Airport (EFHK)

Arrival

Time N/A
Airport John F. Kennedy International Airport (KJFK)
Time Latitude Longitude Altitude Speed Heading
2026-05-04 13:29 60.31419 24.95500 174 ft 0 kts 137°
2026-05-04 14:20 60.31425 24.95489 173 ft 2 kts 134°
2026-05-04 14:20 60.31436 24.95464 173 ft 2 kts 129°
2026-05-04 14:21 60.31453 24.95407 173 ft 2 kts 102°
2026-05-04 14:21 60.31453 24.95374 174 ft 2 kts 75°
2026-05-04 14:21 60.31447 24.95344 174 ft 2 kts 53°
2026-05-04 14:21 60.31441 24.95329 174 ft 1 kts 48°
2026-05-04 14:24 60.31450 24.95349 174 ft 7 kts 47°
2026-05-04 14:24 60.31506 24.95473 174 ft 16 kts 47°
2026-05-04 14:24 60.31584 24.95638 177 ft 16 kts 40°
2026-05-04 14:25 60.31671 24.95778 177 ft 17 kts 44°
2026-05-04 14:25 60.31817 24.96096 177 ft 14 kts 45°
2026-05-04 14:25 60.31899 24.96095 176 ft 13 kts 310°
2026-05-04 14:26 60.31955 24.95980 178 ft 10 kts 316°
2026-05-04 14:26 60.32008 24.95877 179 ft 11 kts 317°
2026-05-04 14:26 60.32067 24.95769 181 ft 14 kts 317°
2026-05-04 14:26 60.32153 24.95612 179 ft 19 kts 317°
2026-05-04 14:27 60.32247 24.95435 178 ft 19 kts 317°
2026-05-04 14:27 60.32313 24.95322 183 ft 18 kts 323°
2026-05-04 14:27 60.32467 24.95191 200 ft 18 kts 342°
2026-05-04 14:27 60.32586 24.95113 194 ft 18 kts 342°
2026-05-04 14:28 60.32711 24.95031 194 ft 20 kts 341°
2026-05-04 14:28 60.32819 24.94960 182 ft 11 kts 342°
2026-05-04 14:28 60.32873 24.94921 176 ft 14 kts 336°
2026-05-04 14:28 60.32945 24.94817 184 ft 12 kts 318°
2026-05-04 14:29 60.33057 24.94608 200 ft 10 kts 317°
2026-05-04 14:29 60.33099 24.94376 196 ft 10 kts 241°
2026-05-04 14:30 60.32992 24.94122 209 ft 49 kts 227°
2026-05-04 14:30 60.32607 24.93272 190 ft 113 kts 227°
2026-05-04 14:30 60.31189 24.90210 887 ft 153 kts 227°
2026-05-04 14:31 60.30696 24.88309 1440 ft 163 kts 260°
2026-05-04 14:31 60.31145 24.83335 1984 ft 199 kts 282°
2026-05-04 14:32 60.31853 24.77446 2494 ft 237 kts 289°
2026-05-04 14:32 60.32780 24.74597 2900 ft 252 kts 316°
2026-05-04 14:32 60.34333 24.72900 3527 ft 257 kts 338°
2026-05-04 14:32 60.36066 24.71791 4104 ft 264 kts 341°
2026-05-04 14:33 60.37845 24.70741 4674 ft 269 kts 340°
2026-05-04 14:33 60.39662 24.69663 5262 ft 274 kts 340°
2026-05-04 14:33 60.41508 24.68564 5850 ft 279 kts 340°
2026-05-04 14:33 60.43378 24.67442 6447 ft 283 kts 339°
2026-05-04 14:34 60.45274 24.66291 7053 ft 285 kts 339°
2026-05-04 14:34 60.47174 24.65136 7676 ft 287 kts 339°
2026-05-04 14:34 60.49099 24.63967 8280 ft 290 kts 338°
2026-05-04 14:34 60.51037 24.62784 8854 ft 293 kts 338°
2026-05-04 14:35 60.52997 24.61594 9433 ft 296 kts 337°
2026-05-04 14:35 60.54986 24.60385 9945 ft 302 kts 337°
2026-05-04 14:35 60.57049 24.59116 10231 ft 316 kts 337°
2026-05-04 14:35 60.59204 24.57787 10494 ft 330 kts 337°
2026-05-04 14:36 60.61419 24.56426 10753 ft 343 kts 337°
2026-05-04 14:36 60.63739 24.55001 11031 ft 354 kts 337°
2026-05-04 14:36 60.66135 24.53534 11440 ft 360 kts 337°
2026-05-04 14:36 60.68546 24.52062 11906 ft 364 kts 337°
2026-05-04 14:37 60.70974 24.50514 12389 ft 365 kts 333°
2026-05-04 14:37 60.73206 24.48192 12905 ft 355 kts 317°
2026-05-04 14:37 60.74935 24.44725 13385 ft 344 kts 300°
2026-05-04 14:37 60.76221 24.40627 13858 ft 341 kts 292°
2026-05-04 14:38 60.77273 24.36284 14334 ft 341 kts 288°
2026-05-04 14:38 60.78212 24.31833 14843 ft 341 kts 287°
2026-05-04 14:38 60.79109 24.27390 15323 ft 343 kts 287°
2026-05-04 14:38 60.80028 24.22861 15776 ft 345 kts 287°
2026-05-04 14:39 60.80970 24.18324 16251 ft 347 kts 287°
2026-05-04 14:39 60.81937 24.13786 16697 ft 349 kts 288°
2026-05-04 14:39 60.82924 24.09220 17132 ft 351 kts 288°
2026-05-04 14:40 60.84933 24.00017 17992 ft 355 kts 288°
2026-05-04 14:40 60.85944 23.95384 18395 ft 358 kts 288°
2026-05-04 14:40 60.86961 23.90703 18789 ft 360 kts 288°
2026-05-04 14:40 60.87982 23.85995 19173 ft 362 kts 288°
2026-05-04 14:41 60.89009 23.81241 19566 ft 365 kts 288°
2026-05-04 14:41 60.90039 23.76463 19926 ft 367 kts 288°
2026-05-04 14:41 60.92118 23.66807 20638 ft 372 kts 288°
2026-05-04 14:42 60.94216 23.56989 21354 ft 376 kts 287°
2026-05-04 14:42 60.95268 23.52042 21692 ft 378 kts 287°
2026-05-04 14:42 60.96323 23.47080 22035 ft 380 kts 287°
2026-05-04 14:43 60.97381 23.42092 22350 ft 382 kts 287°
2026-05-04 14:43 60.98430 23.37131 22678 ft 384 kts 287°
2026-05-04 14:43 60.99494 23.32079 22995 ft 386 kts 287°
2026-05-04 14:43 61.00565 23.26987 23308 ft 388 kts 287°
2026-05-04 14:44 61.01638 23.21871 23626 ft 389 kts 287°
2026-05-04 14:44 61.02716 23.16728 23908 ft 391 kts 287°
2026-05-04 14:44 61.03793 23.11571 24210 ft 393 kts 287°
2026-05-04 14:44 61.04876 23.06374 24525 ft 394 kts 286°
2026-05-04 14:45 61.05984 23.01182 24808 ft 397 kts 287°
2026-05-04 14:45 61.07127 22.95967 25102 ft 399 kts 287°
2026-05-04 14:45 61.08284 22.90739 25355 ft 402 kts 287°
2026-05-04 14:45 61.09445 22.85483 25670 ft 403 kts 287°
2026-05-04 14:46 61.10608 22.80195 25984 ft 405 kts 287°
2026-05-04 14:46 61.11769 22.74889 26271 ft 407 kts 287°
2026-05-04 14:46 61.12935 22.69528 26566 ft 408 kts 287°
2026-05-04 14:46 61.14095 22.64165 26892 ft 409 kts 287°
2026-05-04 14:47 61.15259 22.58769 27206 ft 411 kts 287°
2026-05-04 14:47 61.16423 22.53350 27501 ft 413 kts 287°
2026-05-04 14:47 61.17591 22.47901 27789 ft 415 kts 286°
2026-05-04 14:47 61.18749 22.42487 28102 ft 416 kts 286°
2026-05-04 14:48 61.19924 22.36977 28417 ft 418 kts 286°
2026-05-04 14:48 61.21100 22.31441 28698 ft 421 kts 286°
2026-05-04 14:48 61.22280 22.25877 28986 ft 423 kts 286°
2026-05-04 14:48 61.23464 22.20277 29301 ft 424 kts 286°
2026-05-04 14:49 61.24652 22.14647 29630 ft 426 kts 286°
2026-05-04 14:49 61.25844 22.08995 29907 ft 428 kts 286°
2026-05-04 14:49 61.27035 22.03319 30209 ft 430 kts 285°
2026-05-04 14:49 61.28228 21.97617 30496 ft 432 kts 285°
2026-05-04 14:50 61.29424 21.91880 30814 ft 433 kts 286°
2026-05-04 14:50 61.30625 21.86110 31094 ft 435 kts 286°
2026-05-04 14:50 61.31824 21.80336 31331 ft 437 kts 286°
2026-05-04 14:50 61.33031 21.74501 31568 ft 439 kts 286°
2026-05-04 14:51 61.34240 21.68647 31834 ft 441 kts 286°
2026-05-04 14:51 61.35451 21.62769 32081 ft 442 kts 286°
2026-05-04 14:51 61.36666 21.56857 32291 ft 444 kts 286°
2026-05-04 14:51 61.37879 21.50915 32498 ft 446 kts 286°
2026-05-04 14:52 61.39079 21.45031 32702 ft 447 kts 286°
2026-05-04 14:52 61.40300 21.39037 32931 ft 449 kts 286°
2026-05-04 14:52 61.41517 21.33040 33114 ft 450 kts 286°
2026-05-04 14:52 61.42740 21.26998 33346 ft 451 kts 286°
2026-05-04 14:53 61.43959 21.20958 33650 ft 450 kts 286°
2026-05-04 14:53 61.45170 21.14935 33920 ft 449 kts 286°
2026-05-04 14:53 61.46376 21.08921 34132 ft 449 kts 286°
2026-05-04 14:53 61.47587 21.02864 34365 ft 450 kts 286°
2026-05-04 14:54 61.48790 20.96829 34618 ft 449 kts 286°
2026-05-04 14:54 61.49989 20.90792 34860 ft 449 kts 286°
2026-05-04 14:54 61.51172 20.84819 35062 ft 450 kts 286°
2026-05-04 14:54 61.52369 20.78757 35258 ft 451 kts 286°
2026-05-04 14:55 61.53566 20.72684 35451 ft 451 kts 286°
2026-05-04 14:55 61.54762 20.66593 35655 ft 452 kts 286°
2026-05-04 14:55 61.55957 20.60487 35851 ft 452 kts 286°
2026-05-04 14:55 61.57148 20.54377 36059 ft 452 kts 286°
2026-05-04 14:56 61.58340 20.48253 36208 ft 453 kts 286°
2026-05-04 14:56 61.59530 20.42115 36359 ft 454 kts 286°
2026-05-04 14:56 61.60717 20.35972 36538 ft 455 kts 286°
2026-05-04 14:56 61.61907 20.29796 36750 ft 454 kts 287°
2026-05-04 14:57 61.63092 20.23633 36982 ft 453 kts 287°
2026-05-04 14:57 61.64255 20.17568 37239 ft 451 kts 287°
2026-05-04 14:57 61.65421 20.11460 37499 ft 450 kts 287°
2026-05-04 14:57 61.66585 20.05341 37626 ft 451 kts 287°
2026-05-04 14:58 61.68914 19.93026 37638 ft 453 kts 287°
2026-05-04 14:58 61.71241 19.80667 37636 ft 454 kts 287°
2026-05-04 14:59 61.73559 19.68284 37630 ft 454 kts 286°
2026-05-04 15:00 61.77020 19.49685 37627 ft 454 kts 287°
2026-05-04 15:00 61.79370 19.37394 37627 ft 454 kts 287°
2026-05-04 15:01 61.82918 19.18815 37629 ft 455 kts 287°
2026-05-04 15:01 61.85268 19.06340 37627 ft 456 kts 287°
2026-05-04 15:02 61.87607 18.93845 37626 ft 456 kts 287°
2026-05-04 15:02 61.89933 18.81329 37618 ft 456 kts 287°
2026-05-04 15:03 61.92249 18.68794 37618 ft 456 kts 287°
2026-05-04 15:03 61.94560 18.56220 37620 ft 457 kts 287°
2026-05-04 15:04 61.96856 18.43627 37617 ft 457 kts 287°
2026-05-04 15:04 61.99124 18.31096 37618 ft 457 kts 287°
2026-05-04 15:05 62.01399 18.18453 37617 ft 457 kts 287°
2026-05-04 15:05 62.03664 18.05792 37616 ft 458 kts 287°
2026-05-04 15:06 62.05913 17.93124 37617 ft 458 kts 287°
2026-05-04 15:07 62.09275 17.74045 37602 ft 457 kts 286°
2026-05-04 15:07 62.11496 17.61332 37610 ft 458 kts 286°
2026-05-04 15:08 62.13712 17.48559 37601 ft 458 kts 286°
2026-05-04 15:08 62.15911 17.35783 37612 ft 458 kts 286°
2026-05-04 15:09 62.18103 17.22973 37607 ft 458 kts 286°
2026-05-04 15:09 62.20266 17.10247 37614 ft 458 kts 286°
2026-05-04 15:10 62.23520 16.90955 37608 ft 458 kts 286°
2026-05-04 15:11 62.26743 16.71641 37603 ft 458 kts 286°
2026-05-04 15:11 62.28868 16.58772 37609 ft 457 kts 286°
2026-05-04 15:12 62.30985 16.45881 37614 ft 457 kts 286°
2026-05-04 15:12 62.33092 16.32959 37617 ft 457 kts 286°
2026-05-04 15:13 62.35172 16.20110 37619 ft 457 kts 285°
2026-05-04 15:13 62.37252 16.07176 37617 ft 457 kts 285°
2026-05-04 15:14 62.39318 15.94223 37618 ft 457 kts 285°
2026-05-04 15:14 62.41377 15.81237 37617 ft 456 kts 285°
2026-05-04 15:15 62.43415 15.68270 37618 ft 456 kts 285°
2026-05-04 15:15 62.45444 15.55267 37626 ft 456 kts 285°
2026-05-04 15:16 62.48451 15.35820 37625 ft 457 kts 285°
2026-05-04 15:17 62.51449 15.16243 37628 ft 457 kts 285°
2026-05-04 15:17 62.54093 14.98773 37629 ft 458 kts 284°
2026-05-04 15:18 62.56064 14.85650 37620 ft 458 kts 284°
2026-05-04 15:19 62.58994 14.65941 37618 ft 458 kts 284°
2026-05-04 15:19 62.61895 14.46176 37617 ft 457 kts 284°
2026-05-04 15:20 62.63814 14.33004 37627 ft 457 kts 284°
2026-05-04 15:20 62.65721 14.19821 37617 ft 457 kts 284°
2026-05-04 15:21 62.67599 14.06708 37619 ft 457 kts 284°
2026-05-04 15:22 62.70412 13.86863 37620 ft 457 kts 284°
2026-05-04 15:22 62.73201 13.66984 37617 ft 457 kts 284°
2026-05-04 15:23 62.75045 13.53691 37619 ft 458 kts 284°
2026-05-04 15:23 62.76880 13.40354 37616 ft 459 kts 283°
2026-05-04 15:24 62.80518 13.13642 37615 ft 459 kts 283°
2026-05-04 15:25 62.82322 13.00209 37618 ft 459 kts 283°
2026-05-04 15:26 62.84986 12.80167 37636 ft 459 kts 283°
2026-05-04 15:26 62.87641 12.59953 37640 ft 460 kts 283°
2026-05-04 15:27 62.90264 12.39719 37645 ft 460 kts 283°
2026-05-04 15:28 62.92861 12.19439 37645 ft 460 kts 283°
2026-05-04 15:29 62.96567 11.99959 37646 ft 465 kts 293°
2026-05-04 15:30 63.06622 11.55397 37665 ft 463 kts 293°
2026-05-04 15:31 63.10864 11.36239 37661 ft 462 kts 293°
2026-05-04 15:32 63.17847 11.04344 37680 ft 462 kts 292°
2026-05-04 15:34 63.24752 10.72298 37692 ft 460 kts 292°
2026-05-04 15:34 63.28864 10.52983 37691 ft 460 kts 292°
2026-05-04 15:35 63.32932 10.33715 37693 ft 460 kts 292°
2026-05-04 15:36 63.36985 10.14318 37692 ft 460 kts 292°
2026-05-04 15:36 63.39681 10.01329 37692 ft 461 kts 292°
2026-05-04 15:37 63.42363 9.88315 37692 ft 461 kts 292°
2026-05-04 15:37 63.45010 9.75388 37692 ft 461 kts 292°
2026-05-04 15:38 63.47667 9.62335 37693 ft 460 kts 292°
2026-05-04 15:38 63.50303 9.49304 37694 ft 460 kts 291°
2026-05-04 15:39 63.52930 9.36231 37692 ft 459 kts 291°
2026-05-04 15:40 63.56847 9.16587 37693 ft 459 kts 291°
2026-05-04 15:40 63.59437 9.03493 37702 ft 458 kts 291°
2026-05-04 15:41 63.62011 8.90384 37701 ft 458 kts 291°
2026-05-04 15:41 63.64563 8.77320 37702 ft 458 kts 291°
2026-05-04 15:42 63.67115 8.64169 37711 ft 458 kts 291°
2026-05-04 15:42 63.69652 8.51003 37713 ft 458 kts 291°
2026-05-04 15:43 63.72178 8.37803 37712 ft 458 kts 291°
2026-05-04 15:43 63.74697 8.24562 37712 ft 459 kts 291°
2026-05-04 15:44 63.77207 8.11280 37711 ft 459 kts 291°
2026-05-04 15:44 63.79705 7.97968 37711 ft 459 kts 290°
2026-05-04 15:45 63.82192 7.84637 37712 ft 459 kts 290°
2026-05-04 15:45 63.84647 7.71384 37726 ft 459 kts 290°
2026-05-04 15:46 63.87109 7.57999 37736 ft 459 kts 290°
2026-05-04 15:46 63.89553 7.44624 37726 ft 458 kts 290°
2026-05-04 15:47 63.91986 7.31232 37723 ft 458 kts 290°
2026-05-04 15:47 63.94403 7.17823 37721 ft 458 kts 290°
2026-05-04 15:48 63.96806 7.04392 37716 ft 458 kts 290°
2026-05-04 15:48 64.00388 6.84195 37716 ft 459 kts 290°
2026-05-04 15:49 64.02757 6.70735 37719 ft 461 kts 290°
2026-05-04 15:49 64.05140 6.57103 37725 ft 462 kts 290°
2026-05-04 15:50 64.07510 6.43458 37716 ft 463 kts 290°
2026-05-04 15:50 64.09868 6.29770 37737 ft 462 kts 289°
2026-05-04 15:51 64.12210 6.16073 37726 ft 462 kts 289°
2026-05-04 15:51 64.14540 6.02359 37733 ft 461 kts 289°
2026-05-04 15:52 64.16853 5.88630 37718 ft 461 kts 289°
2026-05-04 15:52 64.19150 5.74884 37727 ft 462 kts 289°
2026-05-04 15:53 64.21422 5.61206 37729 ft 462 kts 289°
2026-05-04 15:53 64.23701 5.47404 37726 ft 462 kts 289°
2026-05-04 15:54 64.25970 5.33551 37735 ft 463 kts 289°
2026-05-04 15:54 64.28228 5.19635 37732 ft 463 kts 289°
2026-05-04 15:55 64.30440 5.05701 37727 ft 463 kts 288°
2026-05-04 15:55 64.32639 4.91724 37729 ft 463 kts 288°
2026-05-04 15:56 64.34817 4.77832 37726 ft 463 kts 288°
2026-05-04 15:56 64.36999 4.63829 37731 ft 463 kts 288°
2026-05-04 15:57 64.39160 4.49812 37723 ft 463 kts 288°
2026-05-04 15:57 64.41309 4.35775 37728 ft 462 kts 288°
2026-05-04 15:58 64.43432 4.21813 37734 ft 462 kts 288°
2026-05-04 15:58 64.45549 4.07775 37736 ft 462 kts 288°
2026-05-04 15:59 64.47654 3.93703 37726 ft 462 kts 288°
2026-05-04 15:59 64.49746 3.79621 37738 ft 462 kts 288°
2026-05-04 16:00 64.51822 3.65527 37730 ft 462 kts 287°
2026-05-04 16:00 64.53889 3.51377 37719 ft 462 kts 287°
2026-05-04 16:01 64.55944 3.37203 37717 ft 463 kts 287°
2026-05-04 16:01 64.57992 3.22961 37711 ft 463 kts 287°
2026-05-04 16:02 64.60011 3.08791 37711 ft 464 kts 287°
2026-05-04 16:03 64.63037 2.87348 37710 ft 464 kts 287°
2026-05-04 16:03 64.65037 2.73030 37711 ft 464 kts 287°
2026-05-04 16:04 64.67023 2.58697 37706 ft 464 kts 287°
2026-05-04 16:04 64.69971 2.37155 37702 ft 464 kts 287°
2026-05-04 16:05 64.71923 2.22765 37707 ft 464 kts 287°
2026-05-04 16:06 64.74823 2.01141 37712 ft 464 kts 286°
2026-05-04 16:07 64.78625 1.72348 37705 ft 464 kts 286°
2026-05-04 16:08 64.82384 1.43386 37711 ft 464 kts 286°
2026-05-04 16:09 64.86697 1.09478 37712 ft 465 kts 286°
2026-05-04 16:10 64.90340 0.80295 37710 ft 464 kts 285°
2026-05-04 16:11 64.93926 0.51025 37717 ft 464 kts 285°
2026-05-04 16:12 64.99177 0.07109 37721 ft 464 kts 285°
2026-05-04 16:13 65.00810 -0.23138 37728 ft 464 kts 275°
2026-05-04 16:14 65.01713 -0.53579 37737 ft 464 kts 275°
2026-05-04 16:16 65.02798 -0.91601 37747 ft 464 kts 274°
2026-05-04 16:17 65.03790 -1.29717 37763 ft 464 kts 274°
2026-05-04 16:18 65.04514 -1.60262 37766 ft 464 kts 274°
2026-05-04 16:19 65.05332 -1.98436 37802 ft 464 kts 273°
2026-05-04 16:20 65.06053 -2.36572 37822 ft 465 kts 273°
2026-05-04 16:22 65.06677 -2.74845 37839 ft 465 kts 273°
2026-05-04 16:23 65.07295 -3.20708 37860 ft 464 kts 272°
2026-05-04 16:25 65.07773 -3.66542 37880 ft 464 kts 272°
2026-05-04 16:26 65.08154 -4.20044 37896 ft 464 kts 272°
2026-05-04 16:28 65.08309 -4.58310 37915 ft 463 kts 271°
2026-05-04 16:29 65.08363 -5.11831 37934 ft 464 kts 271°
2026-05-04 16:31 65.08285 -5.49957 37939 ft 463 kts 271°
2026-05-04 16:32 65.08063 -5.95631 37956 ft 463 kts 270°
2026-05-04 16:33 65.07836 -6.26148 37976 ft 462 kts 270°
2026-05-04 16:34 65.07627 -6.48996 37976 ft 462 kts 270°
2026-05-04 16:35 65.07103 -6.94688 37981 ft 461 kts 270°
2026-05-04 16:36 65.06791 -7.17391 37990 ft 461 kts 270°
2026-05-04 16:37 65.06443 -7.40214 37999 ft 462 kts 270°
2026-05-04 16:38 65.05921 -7.70648 38033 ft 462 kts 269°
2026-05-04 16:39 65.05187 -8.08704 38037 ft 462 kts 269°
2026-05-04 16:40 65.04529 -8.39125 38045 ft 463 kts 269°
2026-05-04 16:41 65.03620 -8.77045 38055 ft 462 kts 269°
2026-05-04 16:43 65.02615 -9.15006 38064 ft 462 kts 268°
2026-05-04 16:43 65.01968 -9.37754 38064 ft 462 kts 268°
2026-05-04 16:45 65.00566 -9.83109 38073 ft 462 kts 268°
2026-05-04 16:46 64.99570 -10.20932 38082 ft 460 kts 270°
2026-05-04 16:47 64.99114 -10.51200 38082 ft 461 kts 270°
2026-05-04 16:48 64.98499 -10.81429 38092 ft 460 kts 269°
2026-05-04 16:49 64.97828 -11.11611 38092 ft 460 kts 269°
2026-05-04 16:50 64.97094 -11.41687 38090 ft 460 kts 269°
2026-05-04 16:51 64.96504 -11.64285 38102 ft 459 kts 269°
2026-05-04 16:52 64.95664 -11.94372 38101 ft 459 kts 269°
2026-05-04 16:53 64.94999 -12.16834 38105 ft 459 kts 269°
2026-05-04 16:54 64.94056 -12.46832 38100 ft 458 kts 268°
2026-05-04 16:55 64.92532 -12.91816 38100 ft 458 kts 268°
2026-05-04 16:56 64.91252 -13.26703 38108 ft 458 kts 268°
2026-05-04 16:57 64.90384 -13.49009 38109 ft 457 kts 268°
2026-05-04 16:58 64.89179 -13.78827 38109 ft 456 kts 268°
2026-05-04 17:00 64.87267 -14.23384 38115 ft 456 kts 267°
2026-05-04 17:01 64.85573 -14.60437 38119 ft 456 kts 267°
2026-05-04 17:02 64.84155 -14.89971 38119 ft 456 kts 266°
2026-05-04 17:03 64.83048 -15.12180 38119 ft 456 kts 266°
2026-05-04 17:03 64.81914 -15.34343 38127 ft 455 kts 266°
2026-05-04 17:04 64.80344 -15.63811 38130 ft 455 kts 266°
2026-05-04 17:05 64.78710 -15.93285 38133 ft 456 kts 266°
2026-05-04 17:06 64.77454 -16.15353 38135 ft 454 kts 266°
2026-05-04 17:07 64.76318 -16.34864 38149 ft 454 kts 266°
2026-05-04 17:07 64.75300 -16.51885 38152 ft 453 kts 265°
2026-05-04 17:08 64.73965 -16.73812 38156 ft 453 kts 265°
2026-05-04 17:09 64.73051 -16.88390 38156 ft 453 kts 265°
2026-05-04 17:09 64.72129 -17.02984 38154 ft 453 kts 265°
2026-05-04 17:10 64.69761 -17.39257 38163 ft 452 kts 265°
2026-05-04 17:11 64.68790 -17.53735 38173 ft 450 kts 265°
2026-05-04 17:12 64.67309 -17.75417 38173 ft 449 kts 265°
2026-05-04 17:13 64.64785 -18.11439 38188 ft 449 kts 264°
2026-05-04 17:14 64.62711 -18.39986 38211 ft 447 kts 264°
2026-05-04 17:15 64.61114 -18.61440 38210 ft 448 kts 264°
2026-05-04 17:16 64.58945 -18.89953 38212 ft 447 kts 264°
2026-05-04 17:17 64.56718 -19.18408 38209 ft 446 kts 263°
2026-05-04 17:18 64.54451 -19.46621 38211 ft 444 kts 263°
2026-05-04 17:19 64.52134 -19.74739 38206 ft 442 kts 263°
2026-05-04 17:20 64.49548 -20.02649 38607 ft 445 kts 256°
2026-05-04 17:20 64.47539 -20.16267 38963 ft 448 kts 255°
2026-05-04 17:20 64.46482 -20.23070 39135 ft 449 kts 254°
2026-05-04 17:21 64.44335 -20.36703 39423 ft 451 kts 254°
2026-05-04 17:21 64.42172 -20.50368 39733 ft 453 kts 254°
2026-05-04 17:22 64.41102 -20.57129 39919 ft 453 kts 254°
2026-05-04 17:22 64.40014 -20.63993 40043 ft 454 kts 254°
2026-05-04 17:23 64.36713 -20.84677 40245 ft 458 kts 253°
2026-05-04 17:23 64.35604 -20.91569 40256 ft 458 kts 253°
2026-05-04 17:24 64.32253 -21.12221 40257 ft 458 kts 253°
2026-05-04 17:25 64.27743 -21.39673 40261 ft 458 kts 253°
2026-05-04 17:26 64.23200 -21.66930 40269 ft 457 kts 252°
2026-05-04 17:27 64.17444 -22.00909 40269 ft 456 kts 252°
2026-05-04 17:28 64.12795 -22.27918 40264 ft 456 kts 252°
2026-05-04 17:29 64.05701 -22.68416 40269 ft 458 kts 252°
2026-05-04 17:31 63.99690 -23.02083 40270 ft 458 kts 251°
2026-05-04 17:32 63.93610 -23.35555 40265 ft 459 kts 251°
2026-05-04 17:33 63.88671 -23.62335 40262 ft 459 kts 251°
2026-05-04 17:34 63.83683 -23.89017 40253 ft 459 kts 250°
2026-05-04 17:35 63.77394 -24.22161 40255 ft 459 kts 250°
2026-05-04 17:36 63.74853 -24.35399 40260 ft 459 kts 250°
2026-05-04 17:36 63.72297 -24.48626 40259 ft 460 kts 250°
2026-05-04 17:37 63.69724 -24.61857 40262 ft 460 kts 250°
2026-05-04 17:37 63.67140 -24.75062 40245 ft 461 kts 250°
2026-05-04 17:38 63.64538 -24.88263 40243 ft 461 kts 249°
2026-05-04 17:38 63.61923 -25.01452 40250 ft 462 kts 249°
2026-05-04 17:39 63.57971 -25.21219 40245 ft 462 kts 249°
2026-05-04 17:39 63.55313 -25.34411 40263 ft 463 kts 249°
2026-05-04 17:40 63.52647 -25.47552 40259 ft 463 kts 249°
2026-05-04 17:40 63.49989 -25.60571 40253 ft 463 kts 249°
2026-05-04 17:41 63.47301 -25.73659 40262 ft 463 kts 249°
2026-05-04 17:41 63.44596 -25.86749 40303 ft 463 kts 249°
2026-05-04 17:42 63.41877 -25.99817 40303 ft 464 kts 248°
2026-05-04 17:42 63.39144 -26.12875 40301 ft 464 kts 248°
2026-05-04 17:43 63.36405 -26.25876 40303 ft 464 kts 248°
2026-05-04 17:43 63.33649 -26.38882 40313 ft 463 kts 248°
2026-05-04 17:44 63.30886 -26.51835 40315 ft 463 kts 248°
2026-05-04 17:44 63.28110 -26.64774 40310 ft 463 kts 248°
2026-05-04 17:45 63.25340 -26.77601 40312 ft 463 kts 248°
2026-05-04 17:45 63.22542 -26.90486 40309 ft 463 kts 248°
2026-05-04 17:46 63.20188 -27.01262 40311 ft 463 kts 247°
2026-05-04 17:46 63.17367 -27.14103 40312 ft 463 kts 247°
2026-05-04 17:47 63.14550 -27.26851 40309 ft 463 kts 247°
2026-05-04 17:47 63.11702 -27.39660 40315 ft 464 kts 247°
2026-05-04 17:48 63.08839 -27.52464 40313 ft 464 kts 247°
2026-05-04 17:48 63.05974 -27.65193 40315 ft 464 kts 247°
2026-05-04 17:49 63.03093 -27.77924 40310 ft 464 kts 247°
2026-05-04 17:49 63.00221 -27.90539 40315 ft 463 kts 246°
2026-05-04 17:50 62.97316 -28.03220 40311 ft 463 kts 246°
2026-05-04 17:50 62.94403 -28.15869 40313 ft 464 kts 246°
2026-05-04 17:51 62.91473 -28.28510 40306 ft 464 kts 246°
2026-05-04 17:51 62.88553 -28.41040 40306 ft 464 kts 246°
2026-05-04 17:52 62.85585 -28.53697 40310 ft 465 kts 246°
2026-05-04 17:52 62.82638 -28.66196 40311 ft 465 kts 246°
2026-05-04 17:53 62.79656 -28.78770 40315 ft 465 kts 245°
2026-05-04 17:53 62.76669 -28.91290 40315 ft 465 kts 245°
2026-05-04 17:54 62.73670 -29.03787 40314 ft 465 kts 245°
2026-05-04 17:54 62.70662 -29.16255 40308 ft 465 kts 245°
2026-05-04 17:55 62.67635 -29.28728 40312 ft 465 kts 245°
2026-05-04 17:55 62.64601 -29.41160 40313 ft 466 kts 245°
2026-05-04 17:56 62.61549 -29.53592 40315 ft 465 kts 245°
2026-05-04 17:56 62.58490 -29.65982 40303 ft 465 kts 245°
2026-05-04 17:57 62.55440 -29.78274 40303 ft 466 kts 244°
2026-05-04 17:57 62.52357 -29.90625 40303 ft 466 kts 244°
2026-05-04 17:58 62.49259 -30.02948 40303 ft 466 kts 244°
2026-05-04 17:58 62.45933 -30.15020 40303 ft 468 kts 241°
2026-05-04 17:59 62.42483 -30.26947 40303 ft 468 kts 241°
2026-05-04 18:00 62.37347 -30.44841 40303 ft 468 kts 241°
2026-05-04 18:00 62.33961 -30.56690 40303 ft 468 kts 241°
2026-05-04 18:01 62.30542 -30.68604 40302 ft 467 kts 242°
2026-05-04 18:01 62.27106 -30.80514 40303 ft 469 kts 241°
2026-05-04 18:02 62.21932 -30.98320 40303 ft 469 kts 241°
2026-05-04 18:02 62.18468 -31.10162 40302 ft 469 kts 241°
2026-05-04 18:03 62.14985 -31.22007 40311 ft 469 kts 241°
2026-05-04 18:03 62.11522 -31.33723 40316 ft 469 kts 240°
2026-05-04 18:04 62.08023 -31.45500 40312 ft 469 kts 240°
2026-05-04 18:05 62.02754 -31.63123 40312 ft 470 kts 240°
2026-05-04 18:05 61.99231 -31.74827 40317 ft 470 kts 240°
2026-05-04 18:06 61.93922 -31.92357 40306 ft 470 kts 240°
2026-05-04 18:06 61.90367 -32.04018 40304 ft 470 kts 240°
2026-05-04 18:07 61.86828 -32.15571 40303 ft 470 kts 240°
2026-05-04 18:07 61.83259 -32.27160 40302 ft 470 kts 240°
2026-05-04 18:08 61.79678 -32.38731 40302 ft 470 kts 239°
2026-05-04 18:08 61.76081 -32.50295 40322 ft 470 kts 239°
2026-05-04 18:09 61.68864 -32.73322 40326 ft 470 kts 239°
2026-05-04 18:10 61.65252 -32.84763 40318 ft 469 kts 239°
2026-05-04 18:10 61.61627 -32.96185 40326 ft 469 kts 239°
2026-05-04 18:11 61.58010 -33.07528 40326 ft 469 kts 239°
2026-05-04 18:11 61.54367 -33.18896 40325 ft 469 kts 239°
2026-05-04 18:12 61.50709 -33.30251 40319 ft 470 kts 239°
2026-05-04 18:12 61.47044 -33.41576 40324 ft 470 kts 239°
2026-05-04 18:13 61.43388 -33.52816 40326 ft 470 kts 239°
2026-05-04 18:14 61.37858 -33.69716 40319 ft 470 kts 238°
2026-05-04 18:14 61.34161 -33.80944 40326 ft 470 kts 238°
2026-05-04 18:15 61.26735 -34.03332 40317 ft 470 kts 238°
2026-05-04 18:16 61.23011 -34.14481 40323 ft 470 kts 238°
2026-05-04 18:16 61.19300 -34.25537 40319 ft 470 kts 238°
2026-05-04 18:17 61.13677 -34.42187 40325 ft 470 kts 238°
2026-05-04 18:18 61.08031 -34.58789 40320 ft 471 kts 238°
2026-05-04 18:18 61.04251 -34.69834 40308 ft 471 kts 238°
2026-05-04 18:19 60.98556 -34.86362 40317 ft 471 kts 238°
2026-05-04 18:19 60.94757 -34.97345 40311 ft 471 kts 238°
2026-05-04 18:20 60.90944 -35.08311 40313 ft 471 kts 238°
2026-05-04 18:20 60.87120 -35.19251 40316 ft 471 kts 237°
2026-05-04 18:21 60.83286 -35.30166 40307 ft 471 kts 237°
2026-05-04 18:21 60.79439 -35.41069 40316 ft 472 kts 237°
2026-05-04 18:22 60.75584 -35.51944 40313 ft 472 kts 237°
2026-05-04 18:22 60.71714 -35.62808 40316 ft 473 kts 237°
2026-05-04 18:23 60.67861 -35.73576 40311 ft 473 kts 237°
2026-05-04 18:23 60.63962 -35.84420 40306 ft 473 kts 237°
2026-05-04 18:24 60.60062 -35.95216 40304 ft 473 kts 237°
2026-05-04 18:24 60.56150 -36.05997 40303 ft 473 kts 237°
2026-05-04 18:25 60.52234 -36.16739 40303 ft 473 kts 237°
2026-05-04 18:25 60.48336 -36.27382 40303 ft 473 kts 237°
2026-05-04 18:26 60.44401 -36.38076 40303 ft 473 kts 236°
2026-05-04 18:26 60.40455 -36.48752 40303 ft 473 kts 236°
2026-05-04 18:27 60.36498 -36.59409 40303 ft 473 kts 236°
2026-05-04 18:27 60.32557 -36.69974 40303 ft 473 kts 236°
2026-05-04 18:28 60.28588 -36.80566 40294 ft 473 kts 236°
2026-05-04 18:28 60.24607 -36.91141 40294 ft 473 kts 236°
2026-05-04 18:29 60.20623 -37.01677 40293 ft 473 kts 236°
2026-05-04 18:29 60.16630 -37.12187 40293 ft 473 kts 236°
2026-05-04 18:30 60.10629 -37.27898 40197 ft 472 kts 236°
2026-05-04 18:31 60.06616 -37.38345 40204 ft 473 kts 236°
2026-05-04 18:31 60.02600 -37.48750 40192 ft 473 kts 236°
2026-05-04 18:32 59.98574 -37.59137 40195 ft 472 kts 236°
2026-05-04 18:32 59.94539 -37.69504 40197 ft 472 kts 236°
2026-05-04 18:33 59.90522 -37.79776 40195 ft 472 kts 236°
2026-05-04 18:33 59.86469 -37.90093 40191 ft 472 kts 236°
2026-05-04 18:34 59.82415 -38.00368 40181 ft 472 kts 236°
2026-05-04 18:34 59.79038 -38.08895 40190 ft 472 kts 235°
2026-05-04 18:35 59.74958 -38.19151 40181 ft 472 kts 235°
2026-05-04 18:35 59.70876 -38.29371 40183 ft 472 kts 235°
2026-05-04 18:36 59.66127 -38.41201 40180 ft 472 kts 235°
2026-05-04 18:36 59.62714 -38.49669 40188 ft 473 kts 235°
2026-05-04 18:37 59.58603 -38.59827 40174 ft 473 kts 235°
2026-05-04 18:37 59.54478 -38.69975 40174 ft 474 kts 235°
2026-05-04 18:38 59.50348 -38.80088 40174 ft 474 kts 234°
2026-05-04 18:38 59.46212 -38.90174 40174 ft 474 kts 234°
2026-05-04 18:39 59.42062 -39.00252 40174 ft 474 kts 234°
2026-05-04 18:39 59.37908 -39.10296 40169 ft 474 kts 234°
2026-05-04 18:40 59.33743 -39.20330 40165 ft 474 kts 234°
2026-05-04 18:40 59.29590 -39.30281 40165 ft 474 kts 234°
2026-05-04 18:41 59.25408 -39.40257 40165 ft 474 kts 234°
2026-05-04 18:41 59.21216 -39.50209 40164 ft 474 kts 234°
2026-05-04 18:42 59.17024 -39.60132 40165 ft 474 kts 234°
2026-05-04 18:42 59.12830 -39.70034 40167 ft 474 kts 234°
2026-05-04 18:43 59.08620 -39.79924 40163 ft 474 kts 234°
2026-05-04 18:43 59.04392 -39.89779 40156 ft 474 kts 234°
2026-05-04 18:44 59.00234 -39.99695 40155 ft 472 kts 238°
2026-05-04 18:44 58.96635 -40.10323 40156 ft 470 kts 241°
2026-05-04 18:45 58.93183 -40.20980 40156 ft 469 kts 242°
2026-05-04 18:45 58.89716 -40.31693 40155 ft 470 kts 241°
2026-05-04 18:46 58.86232 -40.42372 40155 ft 470 kts 241°
2026-05-04 18:46 58.82730 -40.53021 40156 ft 469 kts 241°
2026-05-04 18:47 58.79212 -40.63657 40157 ft 470 kts 241°
2026-05-04 18:47 58.75703 -40.74251 40146 ft 469 kts 241°
2026-05-04 18:48 58.72203 -40.84761 40146 ft 469 kts 241°
2026-05-04 18:48 58.68677 -40.95296 40147 ft 468 kts 241°
2026-05-04 18:49 58.65139 -41.05822 40147 ft 468 kts 241°
2026-05-04 18:49 58.61597 -41.16311 40146 ft 468 kts 241°
2026-05-04 18:50 58.58049 -41.26774 40147 ft 468 kts 241°
2026-05-04 18:50 58.54495 -41.37203 40146 ft 467 kts 241°
2026-05-04 18:51 58.50939 -41.47596 40147 ft 467 kts 240°
2026-05-04 18:51 58.47374 -41.57971 40147 ft 466 kts 241°
2026-05-04 18:52 58.43806 -41.68309 40117 ft 466 kts 240°
2026-05-04 18:52 58.40235 -41.78609 40100 ft 465 kts 240°
2026-05-04 18:53 58.36662 -41.88872 40101 ft 465 kts 240°
2026-05-04 18:53 58.33079 -41.99118 40101 ft 464 kts 240°
2026-05-04 18:54 58.29520 -42.09253 40101 ft 464 kts 240°
2026-05-04 18:54 58.25926 -42.19443 40100 ft 463 kts 240°
2026-05-04 18:55 58.22334 -42.29586 40101 ft 463 kts 240°
2026-05-04 18:55 58.16925 -42.44778 40091 ft 463 kts 240°
2026-05-04 18:56 58.13308 -42.54880 40091 ft 463 kts 240°
2026-05-04 18:56 58.09688 -42.64950 40092 ft 463 kts 240°
2026-05-04 18:57 58.06062 -42.74997 40092 ft 462 kts 240°
2026-05-04 18:57 58.02434 -42.85001 40092 ft 461 kts 239°
2026-05-04 18:58 57.98804 -42.94972 40082 ft 461 kts 239°
2026-05-04 18:58 57.95199 -43.04834 40082 ft 459 kts 239°
2026-05-04 18:59 57.91578 -43.14698 40082 ft 457 kts 239°
2026-05-04 18:59 57.87953 -43.24532 40082 ft 456 kts 239°
2026-05-04 19:00 57.84331 -43.34317 40074 ft 455 kts 238°
2026-05-04 19:00 57.80706 -43.44072 40060 ft 455 kts 238°
2026-05-04 19:01 57.77108 -43.53716 40066 ft 454 kts 238°
2026-05-04 19:01 57.73479 -43.63403 40077 ft 454 kts 238°
2026-05-04 19:02 57.69845 -43.73063 40054 ft 454 kts 238°
2026-05-04 19:02 57.66207 -43.82696 40058 ft 454 kts 238°
2026-05-04 19:03 57.62555 -43.92328 40059 ft 454 kts 238°
2026-05-04 19:03 57.58897 -44.01933 40071 ft 453 kts 238°
2026-05-04 19:04 57.55240 -44.11504 40056 ft 453 kts 237°
2026-05-04 19:04 57.51577 -44.21048 40063 ft 453 kts 237°
2026-05-04 19:05 57.47913 -44.30556 40059 ft 452 kts 237°
2026-05-04 19:05 57.44262 -44.39995 40044 ft 452 kts 237°
2026-05-04 19:06 57.40587 -44.49458 40045 ft 452 kts 237°
2026-05-04 19:06 57.36906 -44.58901 40042 ft 451 kts 237°
2026-05-04 19:07 57.33224 -44.68308 40036 ft 451 kts 236°
2026-05-04 19:07 57.29537 -44.77691 40040 ft 451 kts 236°
2026-05-04 19:08 57.25846 -44.87048 40036 ft 450 kts 236°
2026-05-04 19:08 57.22145 -44.96393 40028 ft 450 kts 236°
2026-05-04 19:09 57.18472 -45.05631 40028 ft 449 kts 236°
2026-05-04 19:09 57.14775 -45.14897 40018 ft 448 kts 236°
2026-05-04 19:10 57.11077 -45.24128 40018 ft 448 kts 235°
2026-05-04 19:10 57.07369 -45.33349 40012 ft 447 kts 235°
2026-05-04 19:11 57.03661 -45.42534 40008 ft 447 kts 235°
2026-05-04 19:11 56.99950 -45.51691 39964 ft 446 kts 235°
2026-05-04 19:12 56.94384 -45.65363 39964 ft 446 kts 234°
2026-05-04 19:13 56.90689 -45.74398 39958 ft 445 kts 234°
2026-05-04 19:13 56.86977 -45.83443 39956 ft 445 kts 234°
2026-05-04 19:14 56.83255 -45.92472 39951 ft 444 kts 234°
2026-05-04 19:14 56.79535 -46.01459 39951 ft 443 kts 234°
2026-05-04 19:15 56.75814 -46.10418 39944 ft 442 kts 233°
2026-05-04 19:15 56.72096 -46.19346 39937 ft 442 kts 233°
2026-05-04 19:16 56.68378 -46.28232 39934 ft 441 kts 233°
2026-05-04 19:16 56.64680 -46.37039 39929 ft 440 kts 233°
2026-05-04 19:17 56.60934 -46.45931 39925 ft 440 kts 233°
2026-05-04 19:17 56.57233 -46.54687 39915 ft 440 kts 233°
2026-05-04 19:18 56.53493 -46.63498 39915 ft 440 kts 233°
2026-05-04 19:18 56.49758 -46.72263 39906 ft 440 kts 233°
2026-05-04 19:19 56.46008 -46.81034 39903 ft 440 kts 232°
2026-05-04 19:19 56.42264 -46.89761 39897 ft 439 kts 232°
2026-05-04 19:20 56.38517 -46.98463 39889 ft 439 kts 232°
2026-05-04 19:20 56.34759 -47.07158 39888 ft 438 kts 232°
2026-05-04 19:21 56.31002 -47.15812 39879 ft 438 kts 232°
2026-05-04 19:21 56.27269 -47.24391 39871 ft 437 kts 231°
2026-05-04 19:22 56.23514 -47.32991 39870 ft 436 kts 231°
2026-05-04 19:22 56.19761 -47.41553 39861 ft 435 kts 231°
2026-05-04 19:23 56.16005 -47.50094 39853 ft 435 kts 231°
2026-05-04 19:23 56.12257 -47.58585 39851 ft 434 kts 230°
2026-05-04 19:24 56.08508 -47.67043 39838 ft 433 kts 230°
2026-05-04 19:24 56.05390 -47.74055 39837 ft 433 kts 230°
2026-05-04 19:25 56.01633 -47.82484 39831 ft 433 kts 230°
2026-05-04 19:25 55.97876 -47.90875 39817 ft 432 kts 230°
2026-05-04 19:26 55.94116 -47.99253 39813 ft 432 kts 230°
2026-05-04 19:26 55.90347 -48.07622 39801 ft 432 kts 230°
2026-05-04 19:27 55.86579 -48.15948 39804 ft 432 kts 230°
2026-05-04 19:27 55.82799 -48.24282 39795 ft 432 kts 229°
2026-05-04 19:28 55.79023 -48.32577 39787 ft 431 kts 229°
2026-05-04 19:28 55.75245 -48.40857 39782 ft 432 kts 229°
2026-05-04 19:29 55.71474 -48.49092 39774 ft 432 kts 229°
2026-05-04 19:29 55.67680 -48.57345 39767 ft 432 kts 228°
2026-05-04 19:30 55.63870 -48.65600 39758 ft 433 kts 228°
2026-05-04 19:30 55.60054 -48.73839 39748 ft 433 kts 228°
2026-05-04 19:31 55.56233 -48.82063 39739 ft 433 kts 227°
2026-05-04 19:31 55.52397 -48.90292 39730 ft 434 kts 227°
2026-05-04 19:32 55.48547 -48.98517 39722 ft 434 kts 227°
2026-05-04 19:32 55.44692 -49.06734 39717 ft 435 kts 227°
2026-05-04 19:33 55.40826 -49.14950 39693 ft 436 kts 226°
2026-05-04 19:33 55.36977 -49.23097 39705 ft 436 kts 226°
2026-05-04 19:34 55.33094 -49.31287 39694 ft 436 kts 226°
2026-05-04 19:34 55.29199 -49.39473 39679 ft 437 kts 226°
2026-05-04 19:35 55.25299 -49.47643 39677 ft 437 kts 226°
2026-05-04 19:35 55.21388 -49.55811 39665 ft 436 kts 226°
2026-05-04 19:36 55.17502 -49.63902 39655 ft 437 kts 226°
2026-05-04 19:36 55.13577 -49.72044 39646 ft 437 kts 225°
2026-05-04 19:37 55.09654 -49.80154 39641 ft 437 kts 225°
2026-05-04 19:37 55.05721 -49.88260 39631 ft 437 kts 225°
2026-05-04 19:38 55.01806 -49.96298 39532 ft 437 kts 225°
2026-05-04 19:38 54.98109 -50.04762 39485 ft 441 kts 229°
2026-05-04 19:39 54.94587 -50.13563 39489 ft 445 kts 229°
2026-05-04 19:39 54.91073 -50.22423 39485 ft 445 kts 229°
2026-05-04 19:40 54.87538 -50.31296 39480 ft 446 kts 229°
2026-05-04 19:40 54.83998 -50.40130 39459 ft 446 kts 229°
2026-05-04 19:41 54.80468 -50.48888 39454 ft 446 kts 229°
2026-05-04 19:41 54.76904 -50.57697 39448 ft 446 kts 229°
2026-05-04 19:42 54.73337 -50.66491 39446 ft 447 kts 229°
2026-05-04 19:42 54.69758 -50.75279 39438 ft 447 kts 229°
2026-05-04 19:43 54.66163 -50.84077 39439 ft 449 kts 228°
2026-05-04 19:43 54.62552 -50.92877 39430 ft 449 kts 228°
2026-05-04 19:44 54.58927 -51.01689 39430 ft 450 kts 228°
2026-05-04 19:44 54.55292 -51.10501 39421 ft 452 kts 228°
2026-05-04 19:45 54.51654 -51.19275 39415 ft 453 kts 228°
2026-05-04 19:45 54.47982 -51.28109 39411 ft 454 kts 228°
2026-05-04 19:46 54.44288 -51.36956 39406 ft 455 kts 228°
2026-05-04 19:46 54.40580 -51.45804 39400 ft 457 kts 228°
2026-05-04 19:47 54.36851 -51.54672 39401 ft 459 kts 228°
2026-05-04 19:47 54.33105 -51.63557 39394 ft 460 kts 227°
2026-05-04 19:48 54.29344 -51.72442 39390 ft 461 kts 227°
2026-05-04 19:48 54.25589 -51.81283 39382 ft 463 kts 227°
2026-05-04 19:49 54.21792 -51.90192 39377 ft 464 kts 227°
2026-05-04 19:49 54.17984 -51.99092 39374 ft 464 kts 227°
2026-05-04 19:50 54.14165 -52.07987 39374 ft 465 kts 227°
2026-05-04 19:50 54.10333 -52.16874 39364 ft 465 kts 227°
2026-05-04 19:51 54.06496 -52.25741 39364 ft 464 kts 227°
2026-05-04 19:51 54.02660 -52.34578 39355 ft 465 kts 227°
2026-05-04 19:52 53.98811 -52.43414 39355 ft 464 kts 227°
2026-05-04 19:52 53.94981 -52.52184 39347 ft 465 kts 227°
2026-05-04 19:53 53.91112 -52.61006 39345 ft 466 kts 227°
2026-05-04 19:53 53.87236 -52.69806 39335 ft 466 kts 227°
2026-05-04 19:54 53.83351 -52.78601 39345 ft 467 kts 227°
2026-05-04 19:54 53.79452 -52.87396 39340 ft 467 kts 227°
2026-05-04 19:55 53.75538 -52.96200 39320 ft 468 kts 227°
2026-05-04 19:55 53.71606 -53.05015 39274 ft 469 kts 226°
2026-05-04 19:56 53.67668 -53.13795 39278 ft 469 kts 226°
2026-05-04 19:56 53.63755 -53.22514 39279 ft 469 kts 226°
2026-05-04 19:57 53.59797 -53.31288 39292 ft 470 kts 226°
2026-05-04 19:57 53.55833 -53.40039 39275 ft 470 kts 226°
2026-05-04 19:58 53.51855 -53.48788 39270 ft 471 kts 226°
2026-05-04 19:58 53.47882 -53.57507 39275 ft 470 kts 226°
2026-05-04 19:59 53.43897 -53.66218 39272 ft 470 kts 226°
2026-05-04 19:59 53.39911 -53.74910 39275 ft 471 kts 226°
2026-05-04 20:00 53.35928 -53.83562 39276 ft 471 kts 226°
2026-05-04 20:00 53.31916 -53.92239 39264 ft 471 kts 226°
2026-05-04 20:01 53.27895 -54.00896 39257 ft 471 kts 226°
2026-05-04 20:01 53.23865 -54.09566 39260 ft 473 kts 226°
2026-05-04 20:02 53.19817 -54.18236 39264 ft 474 kts 226°
2026-05-04 20:02 53.15760 -54.26887 39260 ft 474 kts 226°
2026-05-04 20:03 53.11696 -54.35529 39256 ft 474 kts 226°
2026-05-04 20:03 53.07621 -54.44160 39255 ft 474 kts 226°
2026-05-04 20:04 53.03566 -54.52729 39257 ft 475 kts 226°
2026-05-04 20:04 52.99472 -54.61347 39256 ft 475 kts 226°
2026-05-04 20:05 52.95372 -54.69938 39251 ft 476 kts 226°
2026-05-04 20:05 52.91256 -54.78562 39251 ft 477 kts 226°
2026-05-04 20:06 52.87134 -54.87160 39251 ft 476 kts 226°
2026-05-04 20:06 52.83000 -54.95736 39251 ft 476 kts 226°
2026-05-04 20:07 52.78855 -55.04303 39241 ft 477 kts 226°
2026-05-04 20:07 52.74733 -55.12805 39241 ft 478 kts 226°
2026-05-04 20:08 52.70568 -55.21371 39242 ft 478 kts 226°
2026-05-04 20:08 52.66395 -55.29916 39241 ft 479 kts 226°
2026-05-04 20:09 52.62208 -55.38465 39242 ft 479 kts 225°
2026-05-04 20:09 52.58009 -55.47008 39242 ft 480 kts 226°
2026-05-04 20:10 52.53802 -55.55539 39241 ft 481 kts 225°
2026-05-04 20:10 52.50296 -55.62626 39235 ft 481 kts 225°
2026-05-04 20:11 52.45379 -55.72536 39230 ft 482 kts 225°
2026-05-04 20:11 52.41133 -55.81066 39231 ft 483 kts 225°
2026-05-04 20:12 52.36997 -55.89789 39234 ft 487 kts 230°
2026-05-04 20:12 52.33223 -55.98999 39233 ft 488 kts 231°
2026-05-04 20:13 52.30099 -56.06681 39232 ft 488 kts 231°
2026-05-04 20:13 52.26268 -56.15859 39232 ft 488 kts 230°
2026-05-04 20:14 52.22401 -56.24956 39224 ft 488 kts 230°
2026-05-04 20:14 52.18519 -56.34030 39226 ft 488 kts 230°
2026-05-04 20:15 52.14651 -56.43034 39221 ft 489 kts 230°
2026-05-04 20:15 52.10752 -56.52098 39216 ft 488 kts 230°
2026-05-04 20:16 52.06849 -56.61142 39215 ft 488 kts 230°
2026-05-04 20:16 52.02931 -56.70182 39208 ft 489 kts 230°
2026-05-04 20:17 51.99030 -56.79146 39198 ft 489 kts 230°
2026-05-04 20:17 51.95095 -56.88158 39195 ft 490 kts 230°
2026-05-04 20:18 51.91155 -56.97159 39197 ft 489 kts 230°
2026-05-04 20:18 51.87210 -57.06137 39182 ft 490 kts 230°
2026-05-04 20:19 51.83249 -57.15117 39181 ft 490 kts 230°
2026-05-04 20:19 51.79278 -57.24092 39182 ft 491 kts 230°
2026-05-04 20:20 51.75293 -57.33063 39181 ft 492 kts 230°
2026-05-04 20:20 51.71297 -57.42030 39180 ft 492 kts 230°
2026-05-04 20:21 51.67288 -57.50997 39195 ft 493 kts 230°
2026-05-04 20:21 51.61257 -57.64427 39180 ft 494 kts 230°
2026-05-04 20:22 51.57252 -57.73306 39183 ft 494 kts 230°
2026-05-04 20:22 51.53212 -57.82233 39184 ft 494 kts 230°
2026-05-04 20:23 51.49162 -57.91150 39181 ft 494 kts 230°
2026-05-04 20:23 51.45111 -58.00039 39192 ft 494 kts 230°
2026-05-04 20:24 51.41050 -58.08916 39182 ft 494 kts 230°
2026-05-04 20:24 51.36983 -58.17779 39194 ft 494 kts 230°
2026-05-04 20:25 51.32911 -58.26623 39198 ft 493 kts 230°
2026-05-04 20:25 51.28834 -58.35445 39198 ft 493 kts 230°
2026-05-04 20:26 51.24758 -58.44237 39186 ft 492 kts 230°
2026-05-04 20:26 51.20684 -58.53000 39207 ft 491 kts 230°
2026-05-04 20:27 51.16632 -58.61681 39197 ft 491 kts 230°
2026-05-04 20:27 51.12549 -58.70396 39208 ft 490 kts 230°
2026-05-04 20:28 51.08472 -58.79074 39217 ft 489 kts 230°
2026-05-04 20:28 51.04387 -58.87741 39210 ft 489 kts 230°
2026-05-04 20:29 51.00305 -58.96369 39214 ft 489 kts 230°
2026-05-04 20:29 50.96216 -59.04985 39218 ft 489 kts 230°
2026-05-04 20:30 50.92117 -59.13595 39221 ft 488 kts 230°
2026-05-04 20:30 50.88005 -59.22182 39219 ft 488 kts 229°
2026-05-04 20:31 50.83332 -59.29857 39223 ft 484 kts 220°
2026-05-04 20:31 50.78384 -59.37055 39226 ft 483 kts 219°
2026-05-04 20:32 50.73429 -59.44138 39231 ft 483 kts 219°
2026-05-04 20:32 50.68444 -59.51253 39233 ft 483 kts 219°
2026-05-04 20:33 50.63462 -59.58366 39231 ft 483 kts 220°
2026-05-04 20:33 50.58479 -59.65474 39233 ft 482 kts 220°
2026-05-04 20:34 50.53530 -59.72513 39233 ft 483 kts 220°
2026-05-04 20:34 50.48539 -59.79587 39241 ft 483 kts 220°
2026-05-04 20:35 50.43551 -59.86639 39241 ft 483 kts 220°
2026-05-04 20:35 50.38556 -59.93682 39242 ft 482 kts 220°
2026-05-04 20:36 50.33560 -60.00702 39240 ft 482 kts 220°
2026-05-04 20:36 50.28563 -60.07701 39242 ft 482 kts 220°
2026-05-04 20:37 50.23561 -60.14689 39241 ft 483 kts 220°
2026-05-04 20:37 50.18547 -60.21673 39242 ft 482 kts 220°
2026-05-04 20:38 50.13562 -60.28594 39255 ft 482 kts 220°
2026-05-04 20:38 50.08547 -60.35537 39264 ft 482 kts 220°
2026-05-04 20:39 50.03526 -60.42469 39275 ft 482 kts 220°
2026-05-04 20:39 49.98505 -60.49383 39267 ft 482 kts 219°
2026-05-04 20:40 49.93479 -60.56280 39269 ft 481 kts 220°
2026-05-04 20:40 49.88464 -60.63144 39294 ft 479 kts 220°
2026-05-04 20:41 49.83497 -60.69924 39290 ft 479 kts 220°
2026-05-04 20:41 49.78490 -60.76737 39289 ft 479 kts 220°
2026-05-04 20:42 49.73482 -60.83535 39282 ft 478 kts 220°
2026-05-04 20:42 49.68480 -60.90303 39292 ft 478 kts 220°
2026-05-04 20:43 49.63468 -60.97065 39291 ft 478 kts 220°
2026-05-04 20:43 49.58459 -61.03804 39306 ft 477 kts 220°
2026-05-04 20:44 49.53450 -61.10525 39307 ft 477 kts 220°
2026-05-04 20:44 49.48440 -61.17228 39313 ft 477 kts 220°
2026-05-04 20:45 49.43458 -61.23875 39314 ft 477 kts 220°
2026-05-04 20:45 49.38442 -61.30548 39319 ft 477 kts 220°
2026-05-04 20:46 49.33426 -61.37200 39325 ft 477 kts 220°
2026-05-04 20:46 49.28408 -61.43843 39330 ft 476 kts 220°
2026-05-04 20:47 49.23389 -61.50464 39337 ft 476 kts 220°
2026-05-04 20:47 49.18371 -61.57064 39345 ft 476 kts 220°
2026-05-04 20:48 49.13355 -61.63644 39344 ft 476 kts 220°
2026-05-04 20:48 49.08424 -61.70385 39356 ft 476 kts 226°
2026-05-04 20:49 49.04043 -61.77955 39364 ft 476 kts 229°
2026-05-04 20:49 48.99776 -61.85660 39379 ft 475 kts 229°
2026-05-04 20:50 48.95557 -61.93300 39389 ft 474 kts 229°
2026-05-04 20:50 48.91300 -62.00953 39393 ft 473 kts 229°
2026-05-04 20:51 48.87033 -62.08576 39399 ft 473 kts 229°
2026-05-04 20:51 48.82767 -62.16173 39407 ft 471 kts 229°
2026-05-04 20:52 48.78509 -62.23739 39411 ft 471 kts 229°
2026-05-04 20:52 48.74251 -62.31287 39414 ft 470 kts 229°
2026-05-04 20:53 48.69994 -62.38805 39420 ft 470 kts 229°
2026-05-04 20:53 48.65727 -62.46317 39430 ft 470 kts 229°
2026-05-04 20:54 48.61488 -62.53761 39440 ft 470 kts 229°
2026-05-04 20:54 48.57216 -62.61241 39468 ft 470 kts 229°
2026-05-04 20:55 48.52941 -62.68706 39478 ft 470 kts 229°
2026-05-04 20:55 48.48660 -62.76162 39481 ft 470 kts 229°
2026-05-04 20:56 48.44380 -62.83595 39477 ft 470 kts 229°
2026-05-04 20:56 48.40094 -62.91023 39487 ft 470 kts 229°
2026-05-04 20:57 48.35802 -62.98433 39485 ft 469 kts 229°
2026-05-04 20:57 48.31507 -63.05828 39484 ft 470 kts 229°
2026-05-04 20:58 48.27209 -63.13209 39488 ft 469 kts 229°
2026-05-04 20:58 48.22929 -63.20536 39491 ft 469 kts 229°
2026-05-04 20:59 48.18622 -63.27893 39489 ft 469 kts 229°
2026-05-04 20:59 48.14307 -63.35238 39498 ft 470 kts 229°
2026-05-04 21:00 48.10692 -63.41382 39495 ft 469 kts 229°
2026-05-04 21:00 48.05676 -63.49878 39497 ft 468 kts 229°
2026-05-04 21:01 48.02088 -63.55943 39513 ft 469 kts 229°
2026-05-04 21:01 47.97764 -63.63232 39515 ft 468 kts 229°
2026-05-04 21:02 47.93442 -63.70498 39524 ft 468 kts 229°
2026-05-04 21:02 47.89110 -63.77759 39522 ft 468 kts 229°
2026-05-04 21:03 47.84783 -63.84993 39530 ft 468 kts 229°
2026-05-04 21:03 47.80445 -63.92224 39534 ft 469 kts 229°
2026-05-04 21:04 47.76096 -63.99451 39535 ft 469 kts 229°
2026-05-04 21:04 47.71753 -64.06655 39543 ft 468 kts 229°
2026-05-04 21:05 47.67430 -64.13798 39544 ft 468 kts 229°
2026-05-04 21:05 47.63076 -64.20975 39543 ft 468 kts 229°
2026-05-04 21:06 47.58723 -64.28137 39544 ft 467 kts 229°
2026-05-04 21:06 47.54368 -64.35282 39562 ft 467 kts 229°
2026-05-04 21:07 47.50016 -64.42400 39559 ft 466 kts 229°
2026-05-04 21:07 47.45662 -64.49498 39566 ft 466 kts 229°
2026-05-04 21:08 47.41315 -64.56570 39590 ft 465 kts 229°
2026-05-04 21:08 47.36957 -64.63644 39599 ft 465 kts 229°
2026-05-04 21:09 47.32638 -64.70638 39604 ft 465 kts 229°
2026-05-04 21:09 47.28274 -64.77681 39608 ft 464 kts 229°
2026-05-04 21:10 47.23918 -64.84692 39609 ft 464 kts 229°
2026-05-04 21:10 47.19561 -64.91692 39608 ft 463 kts 229°
2026-05-04 21:11 47.15205 -64.98674 39617 ft 463 kts 229°
2026-05-04 21:11 47.10846 -65.05638 39618 ft 463 kts 229°